Regional Weather Roundup
Issued by NWS Newport/Morehead, NC

Current Version | Previous Version | Text Only | Print | Product List | Glossary Off
Versions: 1 2 3 4 5 6 7 8 9 10 11 12 13 14 15 16 17 18 19 20 21 22 23 24 25 26 27 28 29 30 31 32 33 34 35 36 37 38 39 40 41 42 43 44 45 46 47 48 49 50
000 ASUS42 KMHX 310025 RWRMHX WEATHER ROUNDUP FOR EASTERN NORTH CAROLINA NATIONAL WEATHER SERVICE NEWPORT/MOREHEAD CITY NC 800 PM EDT MON MAY 30 2016 NOTE: "FAIR" INDICATES FEW OR NO CLOUDS BELOW 12,000 FEET WITH NO SIGNIFICANT WEATHER AND/OR OBSTRUCTIONS TO VISIBILITY NCZ015>017-031-032-045>047-102-103-310100- NORTH COAST CITY SKY/WX TMP DP RH WIND PRES REMARKS EDENTON CLOUDY N/A N/A N/A SE9 29.97S ELIZABETH CITY LGT RAIN 72 70 93 SE5 29.98R KITTY HAWK RAIN 70 69 96 CALM 29.95F MANTEO NOT AVBL $$ NCZ045>047-081-094-103-104-310100- CENTRAL COAST CITY SKY/WX TMP DP RH WIND PRES REMARKS FRISCO HVY RAIN 73 70 90 S6 29.95S FOG $$ NCZ095-097-098-100-101-310100- SOUTHERN COAST CITY SKY/WX TMP DP RH WIND PRES REMARKS BEAUFORT PTCLDY 76 71 85 SE6 29.94R CEDAR ISLAND NOT AVBL JACKSONVILLE PTCLDY 77 71 82 SE6 29.92R PINEY ISLAND CLOUDY N/A N/A N/A E8 29.93 WILMINGTON MOCLDY 74 72 93 NE5 29.91S $$ NCZ011>013-027>030-043-044-078>080-089-090>093-098-310100- COASTAL PLAIN CITY SKY/WX TMP DP RH WIND PRES REMARKS AHOSKIE CLOUDY 73 70 92 NE3 29.96S CLINTON DRIZZLE 73 73 100 CALM 29.93S ELIZABETHTOWN CLOUDY 73 73 100 CALM 29.91S GOLDSBORO PTCLDY 74 74 100 NE5 29.92R GREENVILLE CLOUDY 73 72 94 E5 29.97S HAVELOCK MOCLDY 76 72 87 NE6 29.95R KENANSVILLE CLOUDY 73 72 98 CALM 29.94S FOG KINSTON CLOUDY 75 70 83 E6 29.95R NEW BERN PTCLDY 76 70 82 E6 29.95R RICHLANDS CLOUDY 76 72 87 E3 29.93R ROCKY MOUNT CLOUDY 75 69 81 NE3 29.96R WASHINGTON MOCLDY 73 70 92 E3 29.95R WHITEVILLE MOCLDY 75 70 84 CALM 29.90R $$ AMZ130-135-150-152-154-156-158-170-250-252-270-ANZ085-086-088-633-658-670-310100- MARINE OBSERVATIONS STATION/POSITION TIME TEMP WIND PRES WAVE SWELL AIR SEA DIR/SP/G HT/PER HT/PER (UTC) (F) (DEG/KT/KT) (MB) (FT/S) (FT/S) CHESAPEAKE LIGHT 0000 69 170/ 10/ 11 1016.1 64 E VA BEACH 2350 67 64 50/ 2/ 4 1015.4 6/ 7 5/ 7 DUCK 0000 66 59 N/A 2 E DUCK 2311 62 N/A 4/ 8 OREGON INLET 0000 69 75 N/A 13E OREGON INLT 0000 71 N/A 5/ 7 HATTERAS CG 0000 74 74 N/A DIAMOND BUOY 2350 74 81 220/ 14/ 16 1013.5 6/ 7 5/ 7 CAPE LOOKOUT 0000 75 80/ 4/ 4 1013.5 BEAUFORT LAB 0000 76 75 N/A 30 SE NEW RVR IN 2325 76 N/A 5/ 6 27 SE WRIGHTSVLE 0008 77 76 180/ 4/ 6 1012.8 5 SE WRIGHTSVLE 2308 76 78 120/ 10/ 14 1012.8 225 S CAPE HAT 2350 76 76 170/ 10/ 12 1014.9 5/ 8 5/ 8 41 SE CHARLESTON 2350 76 77 230/ 12/ 16 1011.1 4/ 8 3/ 8 $$

USA.gov is the U.S. government's official web portal to all federal, state and local government web resources and services.